Regional Weather Roundup
Issued by NWS Newport/Morehead, NC

Current Version | Previous Version | Text Only | Print | Product List | Glossary On
Versions: 1 2 3 4 5 6 7 8 9 10 11 12 13 14 15 16 17 18 19 20 21 22 23 24 25 26 27 28 29 30 31 32 33 34 35 36 37 38 39 40 41 42 43 44 45 46 47 48 49 50
000 ASUS42 KMHX 010422 RWRMHX WEATHER ROUNDUP FOR EASTERN NORTH CAROLINA NATIONAL WEATHER SERVICE NEWPORT/MOREHEAD CITY NC 1200 AM EDT FRI AUG 01 2014 NOTE: "FAIR" INDICATES FEW OR NO CLOUDS BELOW 12,000 FEET WITH NO SIGNIFICANT WEATHER AND/OR OBSTRUCTIONS TO VISIBILITY NCZ015>017-031-032-045>047-102-103-010500- NORTH COAST CITY SKY/WX TMP DP RH WIND PRES REMARKS EDENTON MOCLDY 74 65 71 SE5 30.17R ELIZABETH CITY CLOUDY 75 64 68 SE6 30.17R KITTY HAWK CLOUDY 76 67 72 E3 30.15F MANTEO NOT AVBL $$ NCZ045>047-081-094-103-104-010500- CENTRAL COAST CITY SKY/WX TMP DP RH WIND PRES REMARKS FRISCO CLOUDY 79 66 64 E10 30.16R SWANQUARTER N/A 72 N/A N/A E2 30.12S $$ NCZ095-097-098-100-101-010500- SOUTHERN COAST CITY SKY/WX TMP DP RH WIND PRES REMARKS BEAUFORT CLOUDY 80 67 64 E8 30.15R CEDAR ISLAND N/A 79 N/A N/A E9G16 30.18S JACKSONVILLE CLOUDY 76 70 82 E8 30.13R NEWPORT NOT AVBL PINEY ISLAND MOCLDY 81 69 67 E13 30.15R WILMINGTON CLOUDY 80 70 71 E8 30.11S $$ NCZ011>013-027>030-043-044-078>080-089-090>093-098-010500- COASTAL PLAIN CITY SKY/WX TMP DP RH WIND PRES REMARKS AHOSKIE CLOUDY 72 66 82 S3 30.17R CLINTON CLOUDY 75 69 84 CALM 30.14S ELIZABETHTOWN CLOUDY 74 68 81 CALM 30.12F GOLDSBORO NOT AVBL GREENVILLE CLOUDY 73 68 83 CALM 30.17R HAVELOCK CLOUDY 74 69 85 E3 30.15R KENANSVILLE CLOUDY 73 67 82 E3 30.14S KINSTON CLOUDY 74 66 74 E3 30.16R NEW BERN CLOUDY 77 68 73 E5 30.16R RICHLANDS CLOUDY 73 66 78 NE8 30.14S ROANOKE RAPIDS NOT AVBL ROCKY MOUNT CLOUDY 73 68 84 CALM 30.16R WASHINGTON CLOUDY 71 65 82 NE3 30.16R WHITEVILLE LGT RAIN 73 71 93 NE3 30.11S $$ AMZ130-135-150-152-154-156-158-170-250-252-270-ANZ085-086-088-633-658-670-010500- MARINE OBSERVATIONS STATION/POSITION TIME TEMP WIND PRES WAVE SWELL AIR SEA DIR/SP/G HT/PER HT/PER (UTC) (F) (DEG/KT/KT) (MB) (FT/S) (FT/S) CHESAPEAKE LIGHT NOT AVBL BUOY 44014 0400 77 78 120/ 12/ 14 1021.5 2/ 7 2/ 7 DUCK 0400 77 76 120/ 14/ 15 1020.6 2E DUCK 0300 N/A 3/ 6 OREGON INLET 0400 78 79 90/ 5/ 10 1021.4 BUOY 44095 0400 78 N/A 3/ 6 20E OREGON INLET NOT AVBL HATTERAS CG 0400 79 80 110/ 6/ 12 1021.6 DIAMOND BUOY 0400 VRB 16/ 19 1020.5 4/ 6 2/ 8 CAPE LOOKOUT 0400 80 100/ 17/ 18 1020.6 BEAUFORT LAB 0400 80 82 100/ 9/ 12 1020.2 30 SE NEW RIVER 0400 81 81 90/ 16/ 17 1019.9 4/ 5 5 SE WRIGHTSVILL 0400 78 81 100/ 16/ 19 N/A BUOY 41002 0253 81 81 170/ 8/ 8 1020.2 4/ 7 3/ 7 BUOY 41004 0400 82 83 130/ 12/ 16 1016.3 4/ 5 2/ 7 $$

USA.gov is the U.S. government's official web portal to all federal, state and local government web resources and services.